Time,TemperatureF,DewpointF,PressureIn,WindDirection,WindDirectionDegrees,WindSpeedMPH,WindSpeedGustMPH,Humidity,HourlyPrecipIn,Conditions,Clouds,dailyrainin,SoftwareType,DateUTC
2013-02-27 00:09:00,32.7,31.0,29.91,WSW,250,0.0,0.0,92,0.00,,,0.00,weatherlink.com 1.10,2013-02-27 06:09:00,
2013-02-27 00:24:00,32.2,30.0,29.91,WSW,250,0.0,0.0,92,0.00,,,0.00,weatherlink.com 1.10,2013-02-27 06:24:00,
2013-02-27 00:54:00,31.8,30.0,29.92,WSW,250,0.0,0.0,92,0.00,,,0.00,weatherlink.com 1.10,2013-02-27 06:54:00,
2013-02-27 01:09:00,31.4,30.0,29.94,SW,217,1.0,1.0,93,0.00,,,0.00,weatherlink.com 1.10,2013-02-27 07:09:00,
2013-02-27 01:24:00,31.3,30.0,29.94,SW,217,0.0,1.0,93,0.00,,,0.00,weatherlink.com 1.10,2013-02-27 07:24:00,
2013-02-27 01:39:00,31.2,30.0,29.93,SW,216,0.0,0.0,94,0.00,,,0.00,weatherlink.com 1.10,2013-02-27 07:39:00,
2013-02-27 01:54:00,30.9,29.0,29.93,SW,217,0.0,0.0,93,0.00,,,0.00,weatherlink.com 1.10,2013-02-27 07:54:00,
2013-02-27 02:09:00,31.0,30.0,29.93,SW,217,0.0,0.0,94,0.00,,,0.00,weatherlink.com 1.10,2013-02-27 08:09:00,
2013-02-27 02:24:00,30.5,29.0,29.92,SW,217,0.0,0.0,93,0.00,,,0.00,weatherlink.com 1.10,2013-02-27 08:24:00,
2013-02-27 02:39:00,30.2,29.0,29.92,SW,217,0.0,0.0,94,0.00,,,0.00,weatherlink.com 1.10,2013-02-27 08:39:00,
2013-02-27 02:55:00,29.9,28.0,29.91,SW,217,0.0,0.0,94,0.00,,,0.00,weatherlink.com 1.10,2013-02-27 08:55:00,
2013-02-27 03:10:00,29.9,28.0,29.92,SW,217,0.0,0.0,94,0.00,,,0.00,weatherlink.com 1.10,2013-02-27 09:10:00,
2013-02-27 03:25:00,29.9,28.0,29.91,SW,217,0.0,0.0,94,0.00,,,0.00,weatherlink.com 1.10,2013-02-27 09:25:00,
2013-02-27 03:40:00,29.6,28.0,29.91,SW,217,0.0,0.0,94,0.00,,,0.00,weatherlink.com 1.10,2013-02-27 09:40:00,
2013-02-27 03:55:00,29.4,28.0,29.92,North,5,0.0,1.0,94,0.00,,,0.00,weatherlink.com 1.10,2013-02-27 09:55:00,
2013-02-27 04:10:00,29.7,29.0,29.93,North,5,0.0,0.0,95,0.00,,,0.00,weatherlink.com 1.10,2013-02-27 10:10:00,
2013-02-27 04:25:00,29.3,28.0,29.94,NNE,25,0.0,1.0,94,0.00,,,0.00,weatherlink.com 1.10,2013-02-27 10:25:00,
2013-02-27 04:40:00,29.3,28.0,29.95,NNE,25,0.0,1.0,94,0.00,,,0.00,weatherlink.com 1.10,2013-02-27 10:40:00,
2013-02-27 04:55:00,29.1,28.0,29.95,NNE,24,0.0,0.0,94,0.00,,,0.00,weatherlink.com 1.10,2013-02-27 10:55:00,
2013-02-27 05:10:00,28.8,27.0,29.94,NE,52,0.0,2.0,94,0.00,,,0.00,weatherlink.com 1.10,2013-02-27 11:10:00,
2013-02-27 05:25:00,29.5,28.0,29.95,NNE,13,1.0,2.0,95,0.00,,,0.00,weatherlink.com 1.10,2013-02-27 11:25:00,
2013-02-27 05:40:00,30.2,29.0,29.97,North,356,2.0,2.0,95,0.00,,,0.00,weatherlink.com 1.10,2013-02-27 11:40:00,
2013-02-27 05:55:00,31.0,30.0,29.99,North,354,2.0,3.0,95,0.00,,,0.00,weatherlink.com 1.10,2013-02-27 11:55:00,
2013-02-27 06:10:00,32.2,31.0,30.00,North,4,1.0,4.0,94,0.00,,,0.00,weatherlink.com 1.10,2013-02-27 12:10:00,
2013-02-27 06:25:00,32.4,30.0,30.01,NNE,20,0.0,0.0,90,0.00,,,0.00,weatherlink.com 1.10,2013-02-27 12:25:00,
2013-02-27 06:40:00,32.2,30.0,30.01,NNE,33,0.0,0.0,90,0.00,,,0.00,weatherlink.com 1.10,2013-02-27 12:40:00,
2013-02-27 06:55:00,31.6,29.0,30.02,NE,36,0.0,0.0,90,0.00,,,0.00,weatherlink.com 1.10,2013-02-27 12:55:00,
2013-02-27 07:10:00,32.2,30.0,30.02,NE,36,0.0,1.0,91,0.00,,,0.00,weatherlink.com 1.10,2013-02-27 13:10:00,
2013-02-27 07:25:00,33.0,30.0,30.03,NNE,19,0.0,1.0,90,0.00,,,0.00,weatherlink.com 1.10,2013-02-27 13:25:00,
2013-02-27 07:41:00,33.9,31.0,30.04,NNE,23,0.0,1.0,89,0.00,,,0.00,weatherlink.com 1.10,2013-02-27 13:41:00,
2013-02-27 07:56:00,35.5,32.0,30.06,NE,41,0.0,4.0,88,0.00,,,0.00,weatherlink.com 1.10,2013-02-27 13:56:00,
2013-02-27 08:11:00,37.3,34.0,30.07,NE,49,6.0,8.0,86,0.00,,,0.00,weatherlink.com 1.10,2013-02-27 14:11:00,
2013-02-27 08:26:00,38.9,35.0,30.08,NE,34,6.0,9.0,84,0.00,,,0.00,weatherlink.com 1.10,2013-02-27 14:26:00,
2013-02-27 08:41:00,39.8,34.0,30.09,NE,46,7.0,9.0,81,0.00,,,0.00,weatherlink.com 1.10,2013-02-27 14:41:00,
2013-02-27 08:56:00,40.7,35.0,30.09,NNE,20,4.0,7.0,80,0.00,,,0.00,weatherlink.com 1.10,2013-02-27 14:56:00,
2013-02-27 09:12:00,42.2,35.0,30.09,North,354,7.0,10.0,75,0.00,,,0.00,weatherlink.com 1.10,2013-02-27 15:12:00,
2013-02-27 09:26:00,43.7,35.0,30.08,SE,131,5.0,6.0,71,0.00,,,0.00,weatherlink.com 1.10,2013-02-27 15:26:00,
2013-02-27 09:42:00,45.6,35.0,30.09,NE,34,4.0,7.0,66,0.00,,,0.00,weatherlink.com 1.10,2013-02-27 15:42:00,
2013-02-27 09:57:00,46.9,34.0,30.09,NE,43,3.0,7.0,62,0.00,,,0.00,weatherlink.com 1.10,2013-02-27 15:57:00,
2013-02-27 10:12:00,48.4,32.0,30.09,North,360,5.0,11.0,53,0.00,,,0.00,weatherlink.com 1.10,2013-02-27 16:12:00,
2013-02-27 10:27:00,49.3,33.0,30.10,NE,49,6.0,12.0,53,0.00,,,0.00,weatherlink.com 1.10,2013-02-27 16:27:00,
2013-02-27 10:42:00,50.5,33.0,30.10,North,359,5.0,11.0,51,0.00,,,0.00,weatherlink.com 1.10,2013-02-27 16:42:00,
2013-02-27 10:57:00,50.8,33.0,30.11,NW,323,9.0,18.0,50,0.00,,,0.00,weatherlink.com 1.10,2013-02-27 16:57:00,
2013-02-27 11:12:00,50.3,34.0,30.11,ENE,72,7.0,15.0,53,0.00,,,0.00,weatherlink.com 1.10,2013-02-27 17:12:00,
2013-02-27 11:27:00,50.9,34.0,30.12,NNW,337,8.0,16.0,52,0.00,,,0.00,weatherlink.com 1.10,2013-02-27 17:27:00,
2013-02-27 11:42:00,51.3,34.0,30.12,NNE,26,8.0,15.0,51,0.00,,,0.00,weatherlink.com 1.10,2013-02-27 17:42:00,
2013-02-27 12:12:00,53.8,34.0,30.11,ENE,58,4.0,11.0,47,0.00,,,0.00,weatherlink.com 1.10,2013-02-27 18:12:00,
2013-02-27 12:27:00,55.3,32.0,30.11,NNW,335,4.0,14.0,41,0.00,,,0.00,weatherlink.com 1.10,2013-02-27 18:27:00,
2013-02-27 12:42:00,55.5,29.0,30.10,North,356,14.0,17.0,37,0.00,,,0.00,weatherlink.com 1.10,2013-02-27 18:42:00,
2013-02-27 12:57:00,55.6,29.0,30.11,North,1,8.0,18.0,37,0.00,,,0.00,weatherlink.com 1.10,2013-02-27 18:57:00,
2013-02-27 13:12:00,56.1,29.0,30.10,NNW,336,6.0,14.0,36,0.00,,,0.00,weatherlink.com 1.10,2013-02-27 19:12:00,
2013-02-27 13:27:00,56.2,29.0,30.10,NNE,28,5.0,14.0,35,0.00,,,0.00,weatherlink.com 1.10,2013-02-27 19:27:00,
2013-02-27 13:42:00,56.2,29.0,30.10,NNW,340,9.0,18.0,36,0.00,,,0.00,weatherlink.com 1.10,2013-02-27 19:42:00,
2013-02-27 13:57:00,56.7,28.0,30.10,North,8,12.0,14.0,33,0.00,,,0.00,weatherlink.com 1.10,2013-02-27 19:57:00,
2013-02-27 14:12:00,56.7,25.0,30.10,North,8,7.0,20.0,30,0.00,,,0.00,weatherlink.com 1.10,2013-02-27 20:12:00,
2013-02-27 14:27:00,56.6,24.0,30.10,North,5,19.0,20.0,29,0.00,,,0.00,weatherlink.com 1.10,2013-02-27 20:27:00,
2013-02-27 14:42:00,56.3,23.0,30.10,NW,312,7.0,21.0,28,0.00,,,0.00,weatherlink.com 1.10,2013-02-27 20:42:00,
2013-02-27 14:57:00,57.1,25.0,30.10,North,11,14.0,14.0,29,0.00,,,0.00,weatherlink.com 1.10,2013-02-27 20:57:00,
2013-02-27 15:12:00,56.4,26.0,30.10,NNW,342,5.0,19.0,31,0.00,,,0.00,weatherlink.com 1.10,2013-02-27 21:12:00,
2013-02-27 15:27:00,56.7,27.0,30.10,NNE,17,15.0,16.0,32,0.00,,,0.00,weatherlink.com 1.10,2013-02-27 21:27:00,
2013-02-27 15:42:00,56.5,28.0,30.10,NNW,330,8.0,18.0,33,0.00,,,0.00,weatherlink.com 1.10,2013-02-27 21:42:00,
2013-02-27 15:57:00,56.6,28.0,30.10,NNW,345,13.0,16.0,33,0.00,,,0.00,weatherlink.com 1.10,2013-02-27 21:57:00,
2013-02-27 16:13:00,56.7,28.0,30.10,NNE,16,9.0,17.0,34,0.00,,,0.00,weatherlink.com 1.10,2013-02-27 22:13:00,
2013-02-27 16:28:00,56.2,28.0,30.10,NW,322,6.0,15.0,34,0.00,,,0.00,weatherlink.com 1.10,2013-02-27 22:28:00,
2013-02-27 16:43:00,56.1,29.0,30.11,NNW,339,11.0,15.0,35,0.00,,,0.00,weatherlink.com 1.10,2013-02-27 22:43:00,
2013-02-27 16:58:00,55.7,29.0,30.11,North,356,5.0,17.0,36,0.00,,,0.00,weatherlink.com 1.10,2013-02-27 22:58:00,
2013-02-27 17:13:00,55.4,29.0,30.11,North,356,10.0,15.0,37,0.00,,,0.00,weatherlink.com 1.10,2013-02-27 23:13:00,
2013-02-27 17:28:00,55.0,29.0,30.11,NNW,340,3.0,14.0,37,0.00,,,0.00,weatherlink.com 1.10,2013-02-27 23:28:00,
2013-02-27 17:43:00,54.6,28.0,30.11,NNW,335,7.0,8.0,36,0.00,,,0.00,weatherlink.com 1.10,2013-02-27 23:43:00,
2013-02-27 17:58:00,53.8,27.0,30.12,North,349,2.0,8.0,36,0.00,,,0.00,weatherlink.com 1.10,2013-02-27 23:58:00,
2013-02-27 18:13:00,52.3,27.0,30.12,NW,321,1.0,8.0,38,0.00,,,0.00,weatherlink.com 1.10,2013-02-28 00:13:00,
2013-02-27 18:28:00,51.3,26.0,30.13,NNW,346,4.0,8.0,37,0.00,,,0.00,weatherlink.com 1.10,2013-02-28 00:28:00,
2013-02-27 18:43:00,50.5,25.0,30.12,NW,310,4.0,6.0,37,0.00,,,0.00,weatherlink.com 1.10,2013-02-28 00:43:00,
2013-02-27 18:58:00,49.5,24.0,30.13,North,349,1.0,4.0,37,0.00,,,0.00,weatherlink.com 1.10,2013-02-28 00:58:00,
2013-02-27 19:13:00,49.1,24.0,30.13,NW,325,1.0,3.0,37,0.00,,,0.00,weatherlink.com 1.10,2013-02-28 01:13:00,
2013-02-27 19:28:00,48.2,24.0,30.14,NNW,335,1.0,3.0,39,0.00,,,0.00,weatherlink.com 1.10,2013-02-28 01:28:00,
2013-02-27 19:43:00,47.5,24.0,30.14,NNE,20,3.0,6.0,40,0.00,,,0.00,weatherlink.com 1.10,2013-02-28 01:43:00,
2013-02-27 19:57:00,47.4,24.0,30.14,NNW,329,1.0,6.0,40,0.00,,,0.00,weatherlink.com 1.10,2013-02-28 01:57:00,
2013-02-27 20:12:00,47.1,24.0,30.15,NNW,333,1.0,5.0,41,0.00,,,0.00,weatherlink.com 1.10,2013-02-28 02:12:00,
2013-02-27 20:27:00,46.7,24.0,30.16,NNW,341,4.0,7.0,41,0.00,,,0.00,weatherlink.com 1.10,2013-02-28 02:27:00,
2013-02-27 20:42:00,46.6,24.0,30.17,North,5,3.0,11.0,41,0.00,,,0.00,weatherlink.com 1.10,2013-02-28 02:42:00,
2013-02-27 20:57:00,46.1,24.0,30.17,North,352,5.0,10.0,42,0.00,,,0.00,weatherlink.com 1.10,2013-02-28 02:57:00,
2013-02-27 21:13:00,45.9,24.0,30.18,NW,326,5.0,10.0,42,0.00,,,0.00,weatherlink.com 1.10,2013-02-28 03:13:00,
2013-02-27 21:28:00,45.7,24.0,30.18,NNE,15,9.0,13.0,43,0.00,,,0.00,weatherlink.com 1.10,2013-02-28 03:28:00,
2013-02-27 21:43:00,45.2,24.0,30.19,North,360,15.0,15.0,44,0.00,,,0.00,weatherlink.com 1.10,2013-02-28 03:43:00,
2013-02-27 21:58:00,44.7,25.0,30.19,NNE,16,9.0,13.0,46,0.00,,,0.00,weatherlink.com 1.10,2013-02-28 03:58:00,
2013-02-27 22:28:00,43.6,26.0,30.20,North,6,4.0,11.0,50,0.00,,,0.00,weatherlink.com 1.10,2013-02-28 04:28:00,
2013-02-27 22:43:00,42.8,26.0,30.20,NNW,334,4.0,10.0,52,0.00,,,0.00,weatherlink.com 1.10,2013-02-28 04:43:00,
2013-02-27 23:13:00,41.6,27.0,30.21,NE,39,3.0,8.0,56,0.00,,,0.00,weatherlink.com 1.10,2013-02-28 05:13:00,
2013-02-27 23:28:00,41.1,27.0,30.21,NNE,21,4.0,9.0,57,0.00,,,0.00,weatherlink.com 1.10,2013-02-28 05:28:00,
2013-02-27 23:43:00,40.9,27.0,30.22,North,354,7.0,11.0,58,0.00,,,0.00,weatherlink.com 1.10,2013-02-28 05:43:00,
2013-02-27 23:58:00,40.8,27.0,30.22,NNW,328,7.0,13.0,59,0.00,,,0.00,weatherlink.com 1.10,2013-02-28 05:58:00,